This is the latest recevied weather packets stored in our database for station/object SQ9RHX-13. If no packets are shown the sender has not sent any weather packets the latest 1 day(s).
| Time | Temp. | Humidity | Pressure | Rain* | Wind** | Luminosity | Snow |
|---|---|---|---|---|---|---|---|
| 1777980902 | 27.78° C | 31% | 1010.6 hPa | 0 mm | 1.34 m/s, 93° | 676 W/m² | - |
| 1777980603 | 27.78° C | 30% | 1010.6 hPa | 0 mm | 0.45 m/s, 54° | 665 W/m² | - |
| 1777980303 | 27.78° C | 32% | 1010.8 hPa | 0 mm | 0.45 m/s, 338° | 656 W/m² | - |
| 1777980002 | 27.22° C | 35% | 1010.7 hPa | 0 mm | 0 m/s | 675 W/m² | - |
| 1777979703 | 27.22° C | 32% | 1010.8 hPa | 0 mm | 0 m/s | 662 W/m² | - |
| 1777979404 | 26.67° C | 33% | 1010.9 hPa | 0 mm | 0.45 m/s, 148° | 688 W/m² | - |
| 1777979102 | 26.67° C | 35% | 1010.9 hPa | 0 mm | 0.89 m/s, 9° | 661 W/m² | - |
| 1777978803 | 26.67° C | 35% | 1010.8 hPa | 0 mm | 0.89 m/s, 173° | 676 W/m² | - |
| 1777978502 | 26.67° C | 36% | 1010.9 hPa | 0 mm | 0.45 m/s, 246° | 671 W/m² | - |
| 1777978203 | 26.11° C | 34% | 1011 hPa | 0 mm | 0 m/s | 693 W/m² | - |
| 1777977904 | 25.56° C | 36% | 1011.2 hPa | 0 mm | 0.45 m/s, 18° | 687 W/m² | - |
| 1777977604 | 25.56° C | 37% | 1011.2 hPa | 0 mm | 0 m/s | 632 W/m² | - |
| 1777977304 | 25° C | 38% | 1011.2 hPa | 0 mm | 0.89 m/s, 178° | 490 W/m² | - |
| 1777977003 | 25.56° C | 38% | 1011.1 hPa | 0 mm | 0 m/s | 553 W/m² | - |
| 1777976705 | 25.56° C | 38% | 1011.1 hPa | 0 mm | 0 m/s | 484 W/m² | - |
| 1777976403 | 25.56° C | 39% | 1011.3 hPa | 0 mm | 0.89 m/s, 56° | 648 W/m² | - |
| 1777976104 | 25.56° C | 39% | 1011.3 hPa | 0 mm | 1.79 m/s, 24° | 692 W/m² | - |
| 1777975803 | 25.56° C | 40% | 1011.3 hPa | 0 mm | 0.45 m/s, 29° | 683 W/m² | - |
| 1777975505 | 24.44° C | 41% | 1011.3 hPa | 0 mm | 0.45 m/s, 38° | 676 W/m² | - |
| 1777975202 | 23.89° C | 42% | 1011.5 hPa | 0 mm | 0.45 m/s, 358° | 641 W/m² | - |
| 1777974903 | 23.89° C | 43% | 1011.4 hPa | 0 mm | 0.45 m/s, 357° | 415 W/m² | - |
| 1777974604 | 23.89° C | 42% | 1011.5 hPa | 0 mm | 1.34 m/s, 343° | 422 W/m² | - |
| 1777974303 | 23.89° C | 42% | 1011.6 hPa | 0 mm | 0 m/s | 505 W/m² | - |
| 1777974003 | 23.89° C | 41% | 1011.6 hPa | 0 mm | 0.45 m/s, 343° | 394 W/m² | - |
| 1777973703 | 23.89° C | 42% | 1011.7 hPa | 0 mm | 0.45 m/s, 2° | 440 W/m² | - |
* Rain latest hour (hover to see other rain measurements)
** Current wind speed in m/s (hover to see current wind gust speed)